Location: Bouillancy
(49.1149°N, 2.9308°E)
Time: 07:57:35
(UTC+00:00)

ARIANE 5 R/B - Pass Details

Date: 30 September 2020
Orbit: 620 x 657 km, 98.2° (Epoch: 23 October)

Event Time Altitude Azimuth Distance (km) Brightness Sun altitude
Exits shadow 19:24:51 17° 42° (NE) 1,598 4.4 -19.6°
Drops below altitude 10° 19:26:45 10° 17° (NNE) 2,000 5.2 -19.9°
Sets 19:29:31 0° 359° (N) 2,914 6.3 -20.4°
